This demonstration page uses our WeatherBlox Daily Observations layout. Learn more.

Left ArrowRight Arrow

Hourly Observations for May 14, 2016

Temp ( °F °C ) Dew Point ( °F °C ) Humidity (%) Winds ( mph kmh ) Pressure ( in mb ) Visibility ( mi km ) Precip ( " mm )
12:51 am 00:51 Clear 76 24.4 23 -5 14 14 NNW 3 6 29.80 1009 10 16 0.00 0.00
1:51 am 01:51 Clear 76 24.4 25 -3.9 15 15 S 5 7 29.79 1009 10 16 0.00 0.00
2:51 am 02:51 Clear 72 22.2 25 -3.9 17 17 NNE 5 7 29.80 1009 10 16 0.00 0.00
3:51 am 03:51 Clear 71 21.7 25 -3.9 18 18 E 6 9 29.80 1009 10 16 0.00 0.00
4:51 am 04:51 Clear 71 21.7 25 -3.9 18 18 E 3 6 29.81 1010 10 16 0.00 0.00
5:51 am 05:51 Sunny 72 22.2 26 -3.3 18 18 VRB 3 6 29.82 1010 10 16 0.00 0.00
6:51 am 06:51 Sunny 73 22.8 27 -2.8 18 18 Calm 29.84 1011 10 16 0.00 0.00
7:51 am 07:51 Sunny 77 25 26 -3.3 15 15 Calm 29.86 1011 10 16 0.00 0.00
8:51 am 08:51 Sunny 82 27.8 29 -1.7 14 14 S 5 7 29.85 1011 10 16 0.00 0.00
9:51 am 09:51 Sunny 85 29.4 30 -1.1 14 14 VRB 3 6 29.84 1011 10 16 0.00 0.00
10:51 am 10:51 Sunny 90 32.2 29 -1.7 11 11 VRB 5 7 29.82 1010 10 16 0.00 0.00
11:51 am 11:51 Sunny 92 33.3 29 -1.7 10 10 Calm 29.79 1009 10 16 0.00 0.00
12:51 pm 12:51 Sunny 95 35 32 0 11 11 NW 13 20 29.75 1007 10 16 0.00 0.00
1:51 pm 13:51 Sunny 93 33.9 32 0 11 11 W 8 13 29.72 1007 10 16 0.00 0.00
2:51 pm 14:51 Sunny 94 34.4 32 0 11 11 VRB 3 6 29.70 1006 10 16 0.00 0.00
3:51 pm 15:51 Mostly Sunny 93 33.9 34 1.1 12 12 S 14 22 29.70 1006 10 16 0.00 0.00
4:51 pm 16:51 Mostly Sunny 90 32.2 37 2.8 15 15 SSW 13 20 29.68 1005 10 16 0.00 0.00
5:51 pm 17:51 Partly Cloudy 89 31.7 36 2.2 15 15 Calm 29.67 1005 10 16 0.00 0.00
6:51 pm 18:51 Sunny 86 30 36 2.2 17 17 WNW 15 24 29.69 1005 10 16 0.00 0.00
7:51 pm 19:51 Partly Cloudy 84 28.9 37 2.8 19 19 N 3 6 29.71 1006 10 16 0.00 0.00
8:49 pm 20:49 Partly Cloudy with Nearby Thunderstorms 82 28 43 6 25 25 E 10 17 29.68 1005 10 16 0.00 0.00
8:51 pm 20:51 Partly Cloudy with Nearby Thunderstorms 82 27.8 43 6.1 25 25 E 10 17 29.72 1006 10 16 0.00 0.00
9:04 pm 21:04 Mostly Clear 81 27.2 44 6.7 27 27 E 8 13 29.68 1005 10 16 0.00 0.00
9:51 pm 21:51 Clear 81 27.2 42 5.6 25 25 E 10 17 29.72 1006 10 16 0.00 0.00
10:51 pm 22:51 Clear 79 26.1 41 5 26 26 ESE 8 13 29.71 1006 10 16 0.00 0.00
11:51 pm 23:51 Mostly Cloudy 77 25 41 5 28 28 E 6 9 29.70 1006 10 16 0.00 0.00

Powered by AerisWeather